User: anonymous   Login
Location: Unspecified
(0.0000°N, 0.0000°E)
Time: 23:48:55
(UTC+00:00)
Language:

Kosmos-1655 - Orbit

View from above orbital plane
View from above orbital plane
View from above satellite
View from above satellite

Ground track
Ground track

The orbit data is extracted from the following two-line orbital elements,

1 15751U 85041A   17349.19139609  .00000043  00000-0  30129-4 0  9995
2 15751  82.9481 192.8293 0027927  75.6199  61.0206 13.71694807629122
Epoch (UTC): 15 December 2017 04:35:36
Eccentricity: 0.0027927
inclination: 82.9481°
perigee height: 973 km
apogee height: 1014 km
right ascension of ascending node: 192.8293°
argument of perigee: 75.6199°
revolutions per day: 13.71694807
mean anomaly at epoch: 61.0206°
orbit number at epoch: 62912

The dashed part of the orbit path shows where the satellite is in the earth's shadow,  

DLR